[[{"header":{"parameterUnit":"m.s-1","parameterCategory":1,"la1":30.2991,"la2":30.254,"lo1":-89.0895,"lo2":-89.0444,"dy":0.0017,"dx":0.0017,"nx":28,"ny":28,"refTime":"2024-08-06T21:00:00:Z","depth":0,"parameterNumber":2,"parameterNumberName":"U-component_of_WINDS"},"data":[0,0,0,0,0,0,0,0,0,0,0,0,0,0,0,0,0,0,0,0,0,0,0,0,0,0,0,0,0,0,0,0,0,0,0,0,0,0,0,0,0,0,0,0,0,0,0,0,0,0,0,0,0,0,0,0,0,0,3.518,3.5181,0,3.5294,3.5295,3.5296,3.5237,3.5234,3.5231,3.5228,3.5349,3.5355,3.5361,0,0,0,0,0,0,0,0,0,0,0,0,0,3.4917,3.4922,3.518,3.5181,3.5183,3.5294,3.5295,3.5297,3.5238,3.5234,3.523,3.5227,3.5347,3.5354,3.5361,0,0,0,0,0,0,0,0,0,0,0,0,0,3.5031,3.4924,3.518,3.5167,3.5167,3.5293,3.5295,3.5297,3.5238,3.5234,3.5229,3.5225,3.5345,3.5353,3.5362,3.551,0,0,3.539,3.5394,0,0,0,0,0,0,0,0,3.5025,3.5041,3.5167,3.5168,3.5168,3.5246,3.5247,3.5369,3.524,3.5211,3.5228,3.5223,3.5319,3.533,3.5361,3.5516,3.5521,3.5391,3.5396,3.54,3.5403,0,0,0,0,0,0,0,3.5017,3.5036,3.5225,3.5169,3.517,3.5157,3.5168,3.5269,3.529,3.5213,3.5209,3.5223,3.5318,3.5353,3.5364,3.5522,3.5391,3.5399,3.5404,3.5408,3.5807,3.5812,0,0,0,0,0,0,3.5009,3.5029,3.5221,3.5228,3.5083,3.5165,3.5178,3.5226,3.5288,3.5293,3.5227,3.522,3.5339,3.5353,3.5368,3.5547,3.54,3.5409,3.5414,3.5802,3.5808,3.5814,0,0,0,0,0,0,3.5003,3.5027,3.5217,3.5128,3.5151,3.5175,3.5229,3.5231,3.5265,3.5298,3.5302,3.5258,3.5336,3.5355,3.5475,3.555,3.5413,3.5421,3.5796,3.5804,3.5811,3.5906,0,0,0,0,0,0,3.4996,3.5025,3.508,3.513,3.5156,3.5322,3.5234,3.5236,3.528,3.5272,3.5329,3.5334,3.5334,3.5462,3.5485,3.556,3.5428,3.5789,3.5799,3.5809,3.5896,3.5916,3.5933,0,0,0,0,0,3.4987,3.5102,3.5083,3.5107,3.5225,3.5326,3.5341,3.5338,3.5286,3.5343,3.5365,3.5332,3.5538,3.5475,3.55,3.5579,3.5785,3.5797,3.5808,3.5888,3.5912,3.5932,0,0,0,0,0,0,3.5062,3.5108,3.5088,3.5222,3.527,3.5316,3.5387,3.5363,3.5428,3.5418,3.5412,3.5426,3.5552,3.5577,3.5506,3.5727,3.5654,3.5671,3.5706,3.5729,3.5747,3.574,3.5436,0,0,0,0,0,3.5094,3.517,3.5207,3.5323,3.5348,3.5363,3.5407,3.54,3.5451,3.5471,3.5502,3.5553,3.563,3.568,3.5752,3.5899,3.5912,3.5966,3.5984,3.5999,3.6015,3.6097,3.6123,3.5852,3.5852,3.5852,0,0,3.5161,3.5196,3.5245,3.5339,3.5375,3.5457,3.5381,3.5469,3.5531,3.5485,3.5601,3.5626,3.5683,3.5818,3.5879,3.5843,3.6092,3.6014,3.6025,3.6033,3.6112,3.6137,3.616,3.586,3.5858,3.5857,0,0,3.5326,3.5359,3.546,3.5498,3.5554,3.5564,3.5588,3.5638,3.5652,3.5768,3.5736,3.581,3.5941,3.5984,3.6023,3.6206,3.6179,3.6229,3.6326,3.6406,3.6428,3.6447,3.6515,3.6539,3.6244,3.6245,3.6245,0,3.5403,3.5523,3.5515,3.5607,3.5651,3.5612,3.5716,3.5753,3.5831,3.5863,3.5821,3.5987,3.6022,3.6168,3.6213,3.6245,3.6275,3.6224,3.6425,3.6444,3.6461,3.6527,3.6552,3.625,3.625,3.6249,3.6249,0,3.5617,3.5701,3.5776,3.5851,3.5903,3.6,3.6009,3.6062,3.6051,3.6066,3.6187,3.6228,3.6309,3.6343,3.6333,3.6489,3.6465,3.6424,3.6351,3.6493,3.6555,3.6579,3.6259,3.6257,3.6255,3.6254,0,0,3.5833,3.5903,3.5931,3.5966,3.6025,3.6091,3.6188,3.6266,3.6314,3.6368,3.6452,3.6564,3.6527,3.6572,3.6567,3.6637,3.6783,3.6588,3.6589,3.6626,3.6961,3.6994,3.7022,3.6765,3.677,3.6773,3.6957,0,3.6004,3.6172,3.6168,3.6325,3.6404,3.6369,3.6454,3.6501,3.6518,3.6589,3.6608,3.6689,3.6632,3.666,3.6727,3.6751,3.6851,3.6737,3.6845,3.6849,3.6835,3.7054,3.7088,3.726,3.6981,3.6985,3.6988,0,3.6226,3.6289,3.6453,3.6503,3.6537,3.6613,3.6686,3.6753,3.6806,3.6814,3.6864,3.6849,3.695,3.6871,3.7012,3.6935,3.6979,3.6997,3.7004,3.7016,3.6929,3.7075,3.7314,3.7341,3.7025,3.7022,3.7019,0,3.6372,3.6496,3.6612,3.6642,3.6703,3.6758,3.6786,3.6834,3.6883,3.6947,3.6978,3.7054,3.7096,3.7155,3.7162,3.7103,3.7305,3.7226,3.7316,3.7317,3.7362,3.736,3.7615,3.7386,3.7385,3.7385,3.7384,0,3.6565,3.6668,3.6678,3.6749,3.6865,3.686,3.6975,3.6998,3.7042,3.7119,3.7093,3.7166,3.7168,3.7244,3.725,3.7367,3.7386,3.7397,3.7398,3.7401,3.74,3.7432,3.7421,3.7392,3.739,3.7389,3.7388,0,3.6748,3.6758,3.6882,3.6929,3.6943,3.7027,3.7068,3.7137,3.7151,3.725,3.7272,3.7296,3.7384,3.7395,3.7498,3.7501,3.7644,3.7631,3.7626,3.7625,3.7716,3.7709,3.8003,3.8043,3.7784,3.7787,3.7789,0,3.6872,3.695,3.7006,3.7055,3.7086,3.7165,3.7214,3.7213,3.7266,3.7334,3.7396,3.7481,3.7549,3.7692,3.7719,3.7798,3.7789,3.7886,3.7801,3.7803,3.7794,3.7791,3.78,3.7904,3.7907,3.7909,3.7911,0,3.7092,3.7094,3.7164,3.7238,3.7297,3.7355,3.741,3.7452,3.7459,3.7519,3.7608,3.7661,3.7766,3.7853,3.7931,3.7962,3.794,3.7937,3.7963,3.7969,3.7964,3.7971,3.7675,3.7931,3.7929,3.7928,3.7926,3.7926,3.7251,3.7321,3.7371,3.7452,3.7493,3.7545,3.7613,3.7636,3.7709,3.7794,3.7789,3.7889,3.7943,3.8046,3.8082,3.8162,3.813,3.8166,3.8176,3.8186,3.8197,3.7949,3.8175,3.8175,3.8174,3.8174,3.8173,0,3.7473,3.7504,3.7578,3.7655,3.772,3.769,3.7749,3.7806,3.7893,3.7945,3.8012,3.8116,3.82,3.8234,3.8317,3.8374,3.8366,3.8396,3.8394,3.8402,3.8219,3.819,3.8402,3.8402,3.8402,3.8401,3.8401,3.8401,3.7596,3.7713,3.7721,3.7858,3.7889,3.7985,3.8022,3.8071,3.8112,3.8229,3.8298,3.8319,3.8365,3.8451,3.8527,3.8535,3.8569,3.8605,3.8609,3.8437,3.8414,3.8392,3.8365,3.8611,3.8611,3.8786,3.8787,3.8788]},{"header":{"parameterUnit":"m.s-1","parameterCategory":1,"la1":30.2991,"la2":30.254,"lo1":-89.0895,"lo2":-89.0444,"dy":0.0017,"dx":0.0017,"nx":28,"ny":28,"refTime":"2024-08-06T21:00:00:Z","depth":0,"parameterNumber":3,"parameterNumberName":"V-component_of_WINDS"},"data":[0,0,0,0,0,0,0,0,0,0,0,0,0,0,0,0,0,0,0,0,0,0,0,0,0,0,0,0,0,0,0,0,0,0,0,0,0,0,0,0,0,0,0,0,0,0,0,0,0,0,0,0,0,0,0,0,0,0,0.0925,0.0925,0,0.0923,0.0923,0.0923,0.0892,0.0891,0.0891,0.089,0.089,0.0891,0.0892,0,0,0,0,0,0,0,0,0,0,0,0,0,0.0904,0.0904,0.0925,0.0925,0.0925,0.0923,0.0923,0.0923,0.0892,0.0891,0.0891,0.089,0.089,0.0891,0.0892,0,0,0,0,0,0,0,0,0,0,0,0,0,0.0909,0.0905,0.0925,0.0909,0.0908,0.0923,0.0923,0.0923,0.0893,0.0891,0.089,0.0889,0.089,0.0891,0.0892,0.0922,0,0,0.0895,0.0896,0,0,0,0,0,0,0,0,0.0908,0.091,0.0912,0.0911,0.0909,0.0907,0.0916,0.0923,0.0893,0.0899,0.089,0.0889,0.0897,0.0897,0.0899,0.0922,0.0922,0.0895,0.0896,0.0896,0.0897,0,0,0,0,0,0,0,0.0908,0.0909,0.0924,0.0912,0.091,0.0903,0.0902,0.0917,0.0904,0.0898,0.0896,0.0896,0.0896,0.0898,0.0899,0.0922,0.0895,0.0896,0.0897,0.0897,0.097,0.0971,0,0,0,0,0,0,0.091,0.0909,0.0924,0.0924,0.0906,0.0904,0.0904,0.0909,0.0904,0.0902,0.0897,0.0894,0.0897,0.0898,0.0899,0.0934,0.0896,0.0897,0.0898,0.0968,0.097,0.0971,0,0,0,0,0,0,0.0909,0.0911,0.0924,0.0916,0.0917,0.0906,0.0912,0.0909,0.0912,0.0903,0.0901,0.0902,0.0896,0.0898,0.0916,0.0934,0.0898,0.0899,0.0967,0.0969,0.0971,0.1006,0,0,0,0,0,0,0.0909,0.0911,0.0923,0.0917,0.0918,0.0942,0.0913,0.091,0.0914,0.091,0.0907,0.0906,0.0895,0.0915,0.0918,0.0935,0.09,0.0965,0.0968,0.097,0.1003,0.1008,0.1013,0,0,0,0,0,0.0908,0.0933,0.0923,0.0925,0.0931,0.0943,0.0943,0.093,0.0915,0.0926,0.0921,0.0906,0.0931,0.0917,0.092,0.0938,0.0964,0.0967,0.097,0.1,0.1007,0.1013,0,0,0,0,0,0,0.0942,0.0932,0.0921,0.0945,0.0945,0.0937,0.0951,0.0938,0.0943,0.094,0.0924,0.0924,0.0945,0.0943,0.0928,0.0967,0.0945,0.0949,0.0968,0.0974,0.0979,0.0979,0.0901,0,0,0,0,0,0.0952,0.0962,0.0952,0.0974,0.0974,0.0963,0.0967,0.0957,0.0957,0.0957,0.0953,0.0954,0.0962,0.0968,0.0975,0.1002,0.1001,0.1016,0.1021,0.1025,0.1029,0.1043,0.1049,0.0981,0.0981,0.098,0,0,0.0974,0.0969,0.0976,0.0981,0.0979,0.099,0.0963,0.0976,0.0983,0.0959,0.0977,0.0973,0.0973,0.0997,0.1007,0.0996,0.1047,0.1029,0.1032,0.1033,0.1046,0.1053,0.1059,0.0982,0.0982,0.0982,0,0,0.1018,0.1015,0.1033,0.1032,0.103,0.1022,0.1026,0.1021,0.1018,0.1035,0.1017,0.1026,0.104,0.1041,0.1043,0.1087,0.1073,0.1089,0.1117,0.1131,0.1137,0.1141,0.1157,0.1163,0.1093,0.1093,0.1093,0,0.1045,0.1059,0.1044,0.1057,0.106,0.1037,0.1055,0.1055,0.1056,0.1059,0.1046,0.1063,0.1062,0.1085,0.1095,0.1098,0.1103,0.109,0.1137,0.1141,0.1146,0.1161,0.1167,0.1095,0.1095,0.1094,0.1094,0,0.1092,0.1103,0.1117,0.1118,0.1122,0.1138,0.1125,0.1131,0.1121,0.1114,0.1132,0.1129,0.1135,0.1139,0.113,0.1161,0.1154,0.1139,0.1117,0.1155,0.1168,0.1174,0.1098,0.1097,0.1096,0.1096,0,0,0.1159,0.115,0.1156,0.1156,0.1152,0.116,0.1174,0.1179,0.1185,0.1186,0.1198,0.1211,0.1197,0.1199,0.1189,0.1202,0.1236,0.1185,0.1185,0.1195,0.1271,0.1283,0.129,0.1227,0.1228,0.1229,0.1271,0,0.1202,0.1226,0.1212,0.1238,0.1248,0.1226,0.1239,0.1238,0.1232,0.124,0.1233,0.1242,0.1223,0.1225,0.1236,0.123,0.1252,0.1226,0.1239,0.124,0.124,0.1297,0.1309,0.135,0.1277,0.1278,0.1278,0,0.1255,0.1258,0.1285,0.1278,0.1282,0.1294,0.1297,0.1304,0.1303,0.1298,0.13,0.1287,0.1301,0.1279,0.1299,0.1282,0.1286,0.1284,0.1285,0.1286,0.1262,0.13,0.1362,0.1369,0.1287,0.1286,0.1285,0,0.1301,0.1312,0.1329,0.133,0.1323,0.1331,0.1329,0.1326,0.133,0.1333,0.1336,0.1341,0.1344,0.1348,0.1337,0.1321,0.1358,0.1335,0.1355,0.1355,0.1364,0.1364,0.1428,0.1366,0.1366,0.1366,0.1366,0,0.1351,0.1368,0.135,0.1361,0.1379,0.1363,0.1383,0.1378,0.1376,0.1386,0.1367,0.1377,0.1361,0.1369,0.136,0.1378,0.138,0.1376,0.1374,0.1378,0.1379,0.1381,0.1379,0.1367,0.1367,0.1367,0.1366,0,0.1406,0.1394,0.1412,0.1403,0.1402,0.1416,0.1409,0.1419,0.1412,0.1424,0.1427,0.1415,0.1424,0.1412,0.142,0.1414,0.1439,0.1432,0.1439,0.1437,0.1458,0.1457,0.1527,0.1536,0.1467,0.1468,0.1469,0,0.1439,0.1452,0.1445,0.1449,0.1448,0.1456,0.146,0.1444,0.1449,0.1448,0.1458,0.1465,0.147,0.1485,0.1478,0.1483,0.1477,0.1501,0.1478,0.1482,0.1478,0.1477,0.1479,0.1506,0.1507,0.1508,0.1508,0,0.1499,0.1492,0.1497,0.1501,0.1505,0.1507,0.1508,0.1513,0.1497,0.1503,0.1511,0.1515,0.1523,0.153,0.1534,0.1532,0.1518,0.1515,0.1521,0.1526,0.153,0.1528,0.1453,0.1514,0.1514,0.1513,0.1513,0.1513,0.1544,0.1554,0.155,0.1557,0.1556,0.1557,0.1566,0.1559,0.1565,0.157,0.156,0.1571,0.1569,0.1573,0.1572,0.1581,0.157,0.1577,0.1579,0.1582,0.1585,0.1527,0.1581,0.1581,0.1581,0.1581,0.1581,0,0.1603,0.1599,0.1605,0.1607,0.1612,0.1597,0.1597,0.1603,0.1612,0.1611,0.1616,0.1625,0.1632,0.1625,0.1631,0.1639,0.1633,0.1641,0.1641,0.164,0.1594,0.1589,0.1646,0.1646,0.1646,0.1646,0.1646,0.1646,0.1634,0.1651,0.1644,0.1659,0.1656,0.1666,0.1667,0.1668,0.1667,0.1678,0.1684,0.1678,0.1675,0.168,0.1686,0.1684,0.1687,0.1698,0.1693,0.165,0.1644,0.1638,0.1633,0.1698,0.1698,0.1739,0.174,0.174]}]]